EW5860 Weather Reports


time (UTC)temp
F
wind
direction
speed
knots
gust
knots
rain 1hr
in
rain 24hr
in
rain mn
in
humidity
%
barometer
mb
20260507101541 49 320 0.0 2.6 0.00 0.69 0.47 96 1010.7
20260507100035 49 333 0.0 1.7 0.00 0.69 0.47 96 1010.6
20260507094533 49 11 0.0 0.0 0.00 0.69 0.47 96 1010.5
20260507093038 49 11 0.0 0.0 0.00 0.69 0.47 96 1010.3
20260507091531 49 11 0.0 0.0 0.00 0.69 0.47 96 1010.2
20260507090033 49 11 0.0 0.0 0.00 0.69 0.47 96 1010.1
20260507084529 49 11 0.0 0.0 0.00 0.69 0.47 96 1010.0
20260507083037 49 11 0.0 0.0 0.00 0.69 0.47 96 1010.2
20260507081530 49 11 0.0 0.0 0.01 0.69 0.47 96 1010.1
20260507080026 49 11 0.0 0.0 0.01 0.69 0.47 95 1010.1
20260507074529 50 11 0.0 0.0 0.02 0.69 0.47 95 1010.3
20260507073025 50 11 0.0 0.0 0.03 0.69 0.47 95 1010.6
20260507071524 50 11 0.0 0.0 0.03 0.68 0.46 95 1010.6
20260507070024 50 11 0.0 0.0 0.04 0.68 0.46 95 1010.6
20260507064523 50 11 0.0 0.0 0.04 0.67 0.45 95 1010.7
20260507063026 50 11 0.0 0.9 0.07 0.66 0.44 94 1010.8
20260507061520 50 9 0.0 1.7 0.09 0.65 0.43 94 1010.4
20260507060022 51 36 0.0 3.5 0.13 0.64 0.42 94 1010.7
20260507054516 51 274 0.0 1.7 0.27 0.63 0.41 94 1010.7
20260507053016 51 257 0.0 2.6 0.30 0.59 0.37 94 1011.0
20260507051513 51 110 0.0 0.9 0.31 0.55 0.33 93 1010.4
20260507050011 52 315 0.0 1.7 0.28 0.50 0.28 92 1010.3
20260507044508 52 240 0.0 1.7 0.14 0.36 0.14 91 1010.4
20260507043007 53 202 0.0 2.6 0.07 0.28 0.07 89 1010.0
20260507041607 55 323 0.0 2.6 0.02 0.24 0.02 87 1009.7
20260507040105 55 321 0.0 1.7 0.00 0.22 0.00 86 1009.8
20260507034600 56 19 0.0 2.6 0.00 0.22 0.22 85 1009.7
20260507033053 57 251 0.0 8.7 0.00 0.22 0.22 86 1009.9
20260507031549 58 65 0.0 7.0 0.00 0.22 0.22 88 1009.3
20260507030053 58 306 0.0 3.5 0.00 0.22 0.22 87 1009.4
20260507024546 59 321 0.9 7.0 0.00 0.22 0.22 86 1009.1
20260507023041 60 34 1.7 7.0 0.00 0.22 0.22 87 1008.9
20260507021544 61 145 0.0 3.5 0.00 0.22 0.22 88 1009.0
20260507020040 62 345 0.9 3.5 0.00 0.22 0.22 87 1009.0
20260507014540 63 277 1.7 6.1 0.00 0.22 0.22 87 1008.9
20260507013040 63 248 0.9 3.5 0.00 0.22 0.22 89 1008.6
20260507011541 64 232 1.7 8.7 0.00 0.22 0.22 90 1008.8
20260507010138 64 246 0.9 2.6 0.00 0.22 0.22 91 1008.5
20260507004537 63 271 0.0 0.9 0.00 0.22 0.22 93 1008.5
20260507003037 64 273 0.0 0.9 0.00 0.22 0.22 92 1007.9
20260507001548 64 273 0.0 1.7 0.00 0.22 0.22 90 1007.6
20260507000039 65 273 0.0 2.6 0.00 0.22 0.22 89 1007.4
20260506234543 65 194 0.0 1.7 0.00 0.22 0.22 88 1007.2
20260506233035 66 264 0.0 4.3 0.00 0.22 0.22 87 1007.2
20260506231537 66 175 1.7 6.1 0.00 0.22 0.22 86 1007.0
20260506230034 66 211 2.6 6.1 0.00 0.22 0.22 86 1007.0
20260506224534 66 235 2.6 7.0 0.00 0.22 0.22 85 1007.2
20260506223035 67 194 0.9 7.0 0.00 0.22 0.22 85 1006.9
20260506221532 67 223 1.7 4.3 0.00 0.22 0.22 84 1006.9
20260506220032 67 171 0.9 2.6 0.00 0.22 0.22 84 1006.8
20260506214531 67 206 1.7 3.5 0.00 0.22 0.22 83 1007.1
20260506213033 68 142 1.7 6.1 0.00 0.22 0.22 82 1006.7
20260506211530 66 209 2.6 5.2 0.00 0.22 0.22 86 1006.6
20260506210030 65 198 0.9 3.5 0.00 0.22 0.22 88 1006.5
20260506204533 65 200 0.9 5.2 0.00 0.22 0.22 89 1006.6
20260506203038 64 261 0.9 2.6 0.00 0.22 0.22 88 1006.6
20260506201528 65 240 2.6 6.1 0.00 0.22 0.22 87 1006.5
20260506200031 65 191 2.6 7.8 0.00 0.22 0.22 87 1006.5
20260506194526 64 192 1.7 7.8 0.00 0.22 0.22 89 1006.6
20260506193026 64 209 3.5 11.3 0.00 0.22 0.22 89 1006.6
20260506191524 63 136 2.6 8.7 0.02 0.22 0.22 92 1006.7
20260506190032 62 208 4.3 13.9 0.02 0.22 0.22 93 1006.8
20260506184522 61 187 3.5 8.7 0.02 0.22 0.22 94 1007.0
20260506183020 61 190 5.2 14.8 0.02 0.22 0.22 94 1007.4
20260506181518 61 242 3.5 15.6 0.00 0.20 0.20 92 1007.5
20260506180018 61 178 5.2 13.9 0.00 0.20 0.20 90 1007.5
20260506174518 61 224 3.5 10.4 0.00 0.20 0.20 90 1007.7
20260506173016 61 128 4.3 13.0 0.00 0.20 0.20 90 1007.5
20260506171516 61 199 5.2 15.6 0.01 0.20 0.20 91 1007.4
20260506170014 61 223 5.2 12.2 0.01 0.20 0.20 91 1007.8
20260506164514 61 213 5.2 15.6 0.02 0.20 0.20 92 1007.7
20260506163022 61 175 3.5 9.6 0.03 0.20 0.20 93 1007.5
20260506161512 60 148 3.5 10.4 0.06 0.19 0.19 93 1007.3
20260506160008 60 225 4.3 11.3 0.08 0.19 0.19 92 1007.9
20260506154522 60 218 2.6 11.3 0.09 0.18 0.18 93 1008.6
20260506153003 60 194 2.6 7.0 0.09 0.17 0.17 92 1008.6
20260506151600 61 280 2.6 8.7 0.09 0.14 0.14 92 1008.9
20260506150058 61 217 3.5 8.7 0.09 0.11 0.11 91 1008.6
20260506144557 61 219 3.5 7.0 0.08 0.09 0.09 91 1008.8
20260506143057 61 206 1.7 9.6 0.08 0.08 0.08 90 1008.6
20260506141554 62 234 0.9 8.7 0.05 0.05 0.05 88 1008.6
20260506140051 62 167 1.7 8.7 0.02 0.02 0.02 87 1008.6
20260506134550 63 202 4.3 12.2 0.01 0.01 0.01 85 1008.5
20260506133050 63 213 2.6 7.0 0.00 0.00 0.00 84 1008.5
20260506131547 63 267 1.7 7.8 0.00 0.00 0.00 84 1008.8
20260506130047 63 229 4.3 9.6 0.00 0.00 0.00 82 1008.8
20260506124546 64 198 7.0 14.8 0.00 0.00 0.00 80 1008.9
20260506123041 65 233 6.1 13.9 0.00 0.00 0.00 78 1008.7
20260506121547 65 175 7.8 14.8 0.00 0.00 0.00 77 1008.6
20260506120041 65 166 7.8 16.5 0.00 0.00 0.00 76 1008.3
20260506114541 65 232 7.0 15.6 0.00 0.00 0.00 77 1008.2
20260506113038 65 214 5.2 13.9 0.00 0.00 0.00 77 1008.1
20260506111536 65 203 5.2 14.8 0.00 0.00 0.00 76 1008.0
20260506110037 65 209 7.0 19.1 0.00 0.00 0.00 76 1008.1
20260506104534 65 222 6.1 18.2 0.00 0.00 0.00 76 1007.7
20260506103031 65 213 5.2 20.0 0.00 0.00 0.00 75 1007.6